Theta_e
346 341 341 341 340 341 341 340 338 338 338 339 339 339 336 341 340 332 324 327 331 333 338 337 336 337 336 338 338 340 339 339 338 338 337 338 343 344 346 347 346 343 339
346 345 338 338 338 337 338 336 336 336 338 337 340 339 340 340 336 328 327 333 336 339 337 337 339 339 337 336 339 336 328 335 341 344 342 341 334 336 335 333 341 340 338
345 343 338 339 337 331 331 332 336 334 335 335 338 338 339 339 336 331 341 341 340 339 339 340 339 326 322 329 336 336 335 340 342 344 345 345 342 340 339 336 332 332 334
345 346 345 341 337 335 334 329 334 336 334 335 338 338 341 339 342 329 331 335 337 336 333 331 331 338 331 328 330 335 339 343 341 341 340 340 344 337 336 338 341 341 337
347 350 342 339 330 329 338 336 331 334 332 331 337 340 339 339 340 338 340 340 340 338 338 337 337 337 331 329 332 332 336 341 345 346 345 340 340 332 340 341 340 340 341
348 348 332 329 329 328 332 339 335 338 334 335 339 340 340 340 338 338 338 338 338 340 337 335 337 335 333 328 330 328 335 342 342 343 343 332 324 324 329 331 330 330 331
344 341 338 339 339 332 330 337 334 338 338 339 340 340 339 340 339 338 338 338 336 336 335 335 332 330 328 329 330 329 340 343 343 342 340 338 324 330 339 333 338 332 328
341 345 347 338 341 336 332 336 333 336 340 340 340 341 340 339 338 337 336 337 337 337 337 337 337 334 331 328 324 326 339 342 343 343 342 331 326 331 337 333 331 327 326
347 346 347 348 341 339 338 339 337 339 340 340 341 338 336 339 330 334 335 337 338 339 337 336 336 333 331 328 327 330 335 338 343 346 345 333 324 325 325 325 325 325 325
346 347 348 347 348 349 346 340 338 338 338 340 340 339 335 336 330 333 336 338 338 340 340 340 338 336 332 326 330 337 338 339 340 339 339 324 324 324 324 325 325 324 324
345 347 346 346 347 346 347 340 336 337 337 338 342 345 345 347 345 347 340 338 340 341 340 340 341 343 344 339 341 341 339 338 338 339 332 324 325 325 325 324 324 324 327
346 346 346 346 346 346 345 345 346 349 350 346 347 346 348 345 343 342 338 340 340 340 340 341 342 345 346 348 346 342 341 340 338 338 328 326 325 324 324 324 326 332 337
344 343 346 344 345 345 344 344 345 347 346 345 345 344 344 344 345 343 342 344 343 344 347 344 347 346 343 346 341 340 342 340 337 336 325 324 323 323 325 330 337 340 339
343 343 343 343 344 344 342 343 345 345 346 344 345 347 347 344 345 346 344 343 347 345 346 346 343 346 345 345 343 342 342 340 338 333 322 322 324 326 333 339 339 339 340
343 343 342 344 344 345 344 341 345 345 345 344 347 348 347 346 345 347 347 347 345 345 344 345 344 344 345 345 343 344 343 342 340 335 323 325 330 337 340 338 339 342 344
342 342 343 346 345 346 344 345 344 346 344 346 346 346 349 346 347 346 346 344 346 347 346 346 348 343 343 342 344 344 344 342 343 341 339 333 338 340 338 339 342 345 347
343 343 346 347 345 345 344 344 346 344 345 345 347 348 348 348 347 346 345 347 346 343 346 347 344 345 343 342 345 345 343 343 344 345 345 345 340 337 339 342 346 348 348
344 344 344 345 344 344 346 346 345 346 346 345 346 347 349 347 349 348 347 346 345 348 346 345 343 342 343 344 345 345 343 342 345 346 346 347 347 345 343 347 348 348 348
345 345 345 345 345 346 346 347 345 347 346 346 347 348 351 350 346 348 349 345 349 347 345 344 341 346 343 344 344 344 344 343 345 344 347 347 346 347 347 347 348 348 347
346 346 345 345 346 346 349 346 346 349 346 346 347 349 347 350 350 350 348 347 350 348 347 347 349 344 344 345 345 343 344 344 345 346 345 344 345 348 346 351 352 351 347
346 346 345 347 346 348 346 347 347 348 347 348 349 348 349 350 350 348 350 347 350 348 348 349 351 344 343 341 347 342 342 344 345 345 344 344 341 344 346 349 349 350 351
346 346 346 349 348 349 347 347 347 347 347 348 349 350 351 350 351 347 350 350 350 350 351 353 348 350 343 343 346 345 342 343 343 343 343 342 343 344 347 349 349 350 351
346 347 348 349 349 349 348 349 350 348 350 347 348 350 350 351 350 353 350 355 344 349 349 352 346 349 345 343 346 352 346 346 342 342 342 343 343 346 346 346 348 350 352
347 347 350 350 352 346 354 348 349 349 347 348 349 348 350 350 351 350 351 352 349 352 349 346 348 348 351 344 344 346 345 349 353 343 341 343 342 344 345 345 345 350 351
348 347 348 351 351 351 350 350 351 347 350 350 349 350 352 351 350 349 351 352 351 349 347 352 346 352 348 349 347 346 343 347 340 347 345 345 342 342 347 347 346 347 352
348 347 348 351 351 351 352 352 351 350 350 350 349 350 351 349 351 350 350 351 350 350 348 348 352 344 353 350 350 345 347 348 349 349 346 344 345 347 347 350 350 349 350
Wind_Speed
14 10 12 13 13 12 13 12 13 13 14 15 15 15 16 17 18 18 18 18 18 20 20 20 19 18 18 18 18 18 18 21 22 21 19 20 18 19 20 23 20 17 17
15 12 13 13 12 11 11 11 11 13 13 14 14 15 16 17 17 18 22 22 20 18 18 18 17 18 16 17 17 18 19 20 22 22 21 18 19 18 17 16 18 19 18
15 14 13 13 11 10 9 9 10 11 11 12 13 14 16 16 18 19 20 19 18 17 17 17 16 15 16 16 15 18 24 26 22 16 16 15 17 18 19 20 19 17 16
14 13 11 11 10 9 8 7 8 10 10 11 13 14 15 16 18 19 19 19 18 18 18 18 18 16 16 16 16 18 19 23 24 20 13 13 14 17 18 17 17 16 13
15 12 10 9 8 8 8 9 10 10 11 12 13 14 15 15 16 17 17 17 17 17 15 15 15 15 16 15 16 18 21 27 19 15 14 14 13 15 17 17 14 13 13
14 14 11 10 9 9 9 10 11 12 13 13 13 14 15 15 16 16 16 17 17 16 15 14 14 14 14 15 15 17 21 25 16 15 13 12 15 15 14 13 13 12 12
16 11 12 12 11 11 11 11 12 12 13 13 14 14 14 14 15 15 16 16 16 16 17 16 16 15 15 15 15 17 22 19 17 14 13 13 16 17 15 13 12 12 11
15 11 11 13 12 12 12 12 13 14 13 12 14 14 14 14 14 14 14 15 17 18 18 18 18 17 17 16 15 15 19 18 13 12 10 13 14 12 12 10 10 11 10
17 12 11 11 12 13 14 13 14 12 14 13 13 13 13 14 15 14 14 16 17 17 17 17 17 17 16 16 17 20 20 19 12 14 11 9 12 11 11 11 11 10 11
15 11 14 12 12 11 11 12 12 12 13 14 13 13 14 15 15 13 14 16 15 16 16 16 17 19 18 17 18 20 19 17 9 8 7 10 11 11 12 11 11 11 11
13 11 11 13 13 11 11 11 12 13 13 13 19 19 17 13 10 11 12 15 15 15 15 15 16 14 15 19 20 17 16 10 8 7 6 9 10 11 12 12 11 12 12
10 13 11 11 12 13 11 15 10 13 11 10 12 11 13 13 13 12 15 14 14 14 14 15 15 14 9 7 11 15 9 8 8 5 6 9 10 12 11 12 13 14 14
13 11 10 12 13 11 10 11 10 8 9 10 12 10 13 13 13 11 11 10 8 9 9 9 10 10 6 7 8 8 9 8 8 4 8 9 11 12 13 13 14 14 14
12 11 11 12 10 9 11 10 11 11 12 11 12 13 11 11 11 8 7 9 7 6 6 7 6 6 8 7 8 8 8 7 8 5 9 11 12 13 14 14 15 15 15
13 12 12 12 13 14 10 12 11 13 15 11 11 10 11 8 8 9 7 5 7 6 6 5 6 6 8 7 7 7 7 8 8 6 10 12 13 14 14 14 14 14 14
13 13 13 12 12 11 12 11 13 12 14 12 10 9 7 7 9 6 5 7 7 6 5 5 4 6 7 8 7 7 7 6 9 7 6 12 13 13 13 14 13 13 14
14 13 13 12 13 12 14 16 11 12 12 11 10 9 5 5 6 8 4 5 6 7 7 6 7 6 7 7 7 6 6 7 6 8 7 4 13 12 12 12 12 13 14
15 15 14 12 13 14 13 13 12 12 11 10 8 6 5 7 6 6 6 4 5 4 5 1 5 6 5 5 5 5 5 5 6 7 6 5 5 3 9 11 12 13 14
16 16 14 15 15 14 15 10 13 12 11 9 7 7 6 5 8 8 5 4 7 3 3 5 4 2 2 3 6 5 5 4 5 5 5 6 8 6 2 8 13 13 14
16 16 15 15 16 15 11 14 11 10 13 9 8 8 6 5 4 7 2 5 8 3 4 4 4 1 4 2 6 5 5 4 5 4 4 6 3 4 2 3 7 7 12
16 16 16 16 17 13 12 10 10 10 11 10 8 7 7 6 4 10 6 6 3 3 6 2 2 3 2 1 2 4 3 5 5 4 5 4 2 3 2 2 5 5 8
17 17 17 16 17 15 12 11 10 9 8 8 7 7 6 6 5 4 7 5 4 3 2 1 1 1 3 1 4 2 6 5 4 5 4 4 3 2 0 2 4 5 6
18 18 18 17 17 17 13 11 9 10 7 7 7 7 6 6 4 4 6 1 7 5 4 2 0 2 3 2 2 7 2 2 6 4 3 3 3 2 1 2 2 4 5
19 18 18 17 15 16 11 13 12 10 9 13 9 8 5 8 6 4 5 4 6 2 4 1 1 4 5 3 3 3 7 2 7 5 5 2 4 3 0 2 3 1 6
21 19 18 18 16 15 14 10 10 12 14 3 9 7 7 7 9 7 6 6 6 5 7 4 2 1 1 2 3 3 2 0 4 6 3 6 3 2 0 2 2 4 5
23 19 18 18 18 16 14 12 11 7 8 11 6 5 7 6 5 7 7 7 7 4 4 4 5 6 1 2 4 1 2 4 3 5 3 3 2 2 1 2 1 3 7
Wind_Direction
136 149 129 115 114 115 111 100 95 92 89 85 84 85 87 87 84 83 94 99 96 97 92 92 93 93 93 87 86 85 86 84 80 79 79 87 85 84 86 87 78 86 87
133 139 132 119 112 110 111 105 98 91 87 86 84 87 88 88 84 92 96 98 97 94 95 95 95 92 91 91 86 85 86 83 78 78 71 69 84 90 89 92 85 85 85
135 138 134 118 115 117 112 105 97 95 93 91 91 93 92 89 89 97 99 95 94 97 97 94 93 90 90 94 91 91 93 88 83 76 91 71 78 81 81 82 83 81 87
130 126 126 117 115 109 105 107 98 96 95 100 94 96 94 94 96 100 103 101 98 97 92 90 90 85 84 89 90 91 91 86 83 71 91 78 75 83 81 77 79 80 77
135 133 144 126 126 129 113 105 105 97 97 104 98 100 101 99 98 101 99 94 93 93 96 92 91 85 79 85 88 90 95 88 73 73 89 85 79 87 86 83 80 85 84
134 133 131 118 113 118 116 105 109 101 103 105 102 101 106 107 106 104 98 94 93 93 93 93 92 90 87 87 88 89 96 82 79 77 67 82 87 88 91 79 75 73 69
119 122 121 119 117 112 122 109 113 106 103 105 105 105 103 107 106 105 98 95 93 91 91 94 92 92 89 89 90 91 95 83 104 89 78 80 85 87 74 69 63 65 65
128 124 118 117 116 116 118 116 111 111 107 105 108 101 102 105 111 106 102 99 96 91 89 89 86 84 84 86 86 91 95 92 80 86 79 80 83 83 85 76 72 65 63
124 124 117 112 116 114 113 109 113 116 110 112 110 106 96 100 109 113 105 105 99 91 88 87 84 82 81 82 82 81 84 88 95 84 75 71 78 79 78 72 67 65 64
117 126 123 123 112 102 108 114 118 119 114 112 105 104 87 88 97 104 104 108 102 96 88 84 83 78 71 71 81 78 76 79 81 69 82 76 78 79 77 74 71 69 66
138 123 129 124 140 121 110 106 113 104 97 106 95 91 88 80 97 103 128 107 101 91 83 77 79 69 72 66 63 65 70 81 89 80 69 77 82 81 79 77 74 72 67
128 138 138 135 127 136 129 103 110 108 108 128 111 91 101 125 122 121 109 105 97 84 75 73 68 58 41 59 51 65 75 81 93 87 73 81 85 84 83 82 79 73 66
139 130 146 146 127 146 124 128 129 102 133 122 116 115 114 116 99 105 92 85 79 41 68 49 15 59 55 73 77 76 75 81 84 93 80 89 90 89 87 85 80 72 63
140 141 141 143 150 127 144 138 141 140 123 125 130 119 120 115 121 118 111 122 120 106 88 55 70 85 83 66 84 81 85 87 92 70 85 92 93 94 91 86 77 70 64
148 146 146 146 150 140 138 143 147 140 133 139 127 136 129 120 122 116 133 80 103 96 90 83 83 90 95 95 93 89 87 99 96 95 82 92 94 94 91 84 77 70 60
150 151 151 154 143 137 142 139 140 150 135 136 125 137 114 118 117 118 128 115 113 80 84 73 73 81 103 95 101 100 96 89 110 104 77 84 93 92 87 81 74 64 52
156 154 149 143 137 141 142 142 142 133 142 149 145 127 138 113 136 123 128 113 108 90 103 95 102 109 107 98 106 105 103 104 105 102 109 70 67 80 80 76 70 62 51
156 154 151 149 142 140 145 137 146 142 148 144 144 147 130 155 130 110 105 102 121 105 106 105 117 91 94 97 93 99 111 114 111 107 125 113 119 45 68 78 66 55 43
159 156 156 148 150 149 150 147 142 152 151 148 151 156 151 135 137 112 116 140 107 115 107 120 74 58 106 131 124 106 117 122 127 122 117 112 132 111 96 65 52 41 38
160 160 160 156 156 155 161 154 150 164 150 161 160 169 153 166 162 120 131 139 128 141 142 66 66 29 65 276 39 116 116 128 132 121 120 123 127 87 101 67 23 10 26
164 165 165 164 165 161 159 160 159 157 159 158 177 152 154 161 167 139 139 132 68 90 106 100 242 37 125 315 217 120 130 131 132 134 131 138 98 117 84 34 53 53 6
167 169 169 170 173 169 171 169 175 173 153 168 168 167 162 166 180 167 158 170 192 157 142 353 147 81 70 286 8 178 156 163 125 130 139 146 146 136 111 62 22 6 29
173 174 177 178 185 178 187 180 170 176 169 167 185 185 193 189 195 180 183 73 186 144 180 125 140 1 95 74 80 346 315 159 158 171 148 157 143 159 156 350 49 356 354
175 182 182 186 192 194 176 184 203 178 183 189 185 186 191 192 199 206 202 202 179 233 192 145 239 96 349 126 108 17 37 23 326 167 163 189 184 194 268 327 337 306 14
174 185 188 191 194 196 204 191 201 196 200 206 182 193 169 206 190 201 216 219 217 162 225 179 156 161 341 56 103 154 76 176 318 334 158 137 180 188 336 354 337 339 344
179 179 189 192 201 197 204 192 202 213 217 202 200 172 194 196 199 205 203 205 222 193 264 201 225 193 92 168 73 301 315 8 299 349 333 242 329 262 246 247 195 327 316